Location: Rumah Geringgi
(3.1667°N, 113.1667°E)
Time: 20:25:40
(UTC+00:00)

ARIANE 5 R/B - Pass Details

Date: 03 August 2024
Orbit: 848 x 35738 km, 1.4° (Epoch: 19 September)

Event Time Altitude Azimuth Distance (km) Brightness Sun altitude
Exits shadow 21:11:09 31° 246° (WSW) 1,598 5.0 -18.6°
Maximum altitude 21:13:26 57° 180° (S) 992 4.4 -18.1°
Drops below altitude 10° 21:18:21 10° 100° (E) 2,753 7.8 -16.9°
Sets 21:21:30 0° 95° (E) 4,305 9.1 -16.2°
